Regional Weather Roundup
Issued by NWS

Home | Current Version | Previous Version | Graphics & Text | Print | Product List | Glossary On
Versions: 1 2 3 4 5 6 7 8 9 10 11 12 13 14 15 16 17 18 19 20 21 22 23 24 25 26 27 28 29 30 31 32 33 34 35 36 37 38 39 40 41 42 43 44 45 46 47 48 49 50
614
ASUS44 KMEG 210200
RWRTN
TENNESSEE HOURLY STATE WEATHER ROUNDUP
NATIONAL WEATHER SERVICE MEMPHIS TN
900 PM CDT SUN AUG 20 2017

TNZ002-004-019-021-049-052-054-088>092-210300-
WEST TENNESSEE

CITY           SKY/WX    TMP DP  RH WIND       PRES   REMARKS
MEMPHIS INTL   PTCLDY    79  74  84 SW5       30.05R
NWS MEMPHIS      N/A     79 N/A N/A MISG        N/A
JACKSON        PTCLDY    78  76  93 CALM      30.07R
DYERSBURG      PTCLDY    80  75  84 CALM      30.07R
$$

TNZ008-025-027-028-033-062-065-066-210300-
NORTH MIDDLE TENNESSEE

CITY           SKY/WX    TMP DP  RH WIND       PRES   REMARKS
NASHVILLE      PTCLDY    82  68  62 S3        30.09R
CLARKSVILLE    CLOUDY    77  68  73 CALM      30.08R
SMYRNA         CLEAR     79  69  71 CALM      30.10R
CROSSVILLE     PTCLDY    74  68  81 CALM      30.20R
$$

TNZ061-075-076-078-094-096-097-210300-
SOUTH MIDDLE TENNESSEE

CITY           SKY/WX    TMP DP  RH WIND       PRES   REMARKS
$$

TNZ017-018-042-046-047-210300-
NORTHEAST TENNESSEE

CITY           SKY/WX    TMP DP  RH WIND       PRES   REMARKS
TRI CITIES     PTCLDY    72  69  90 CALM      30.19R
$$

TNZ012-013-036-069-073-074-210300-
CENTRAL EAST TENNESSEE

CITY           SKY/WX    TMP DP  RH WIND       PRES   REMARKS
KNOXVILLE      NOT AVBL
OAK RIDGE      CLEAR     77  71  82 CALM      30.16R
$$

TNZ083-085-099-210300-
SOUTHEAST TENNESSEE

CITY           SKY/WX    TMP DP  RH WIND       PRES   REMARKS
CHATTANOOGA    PTCLDY    80  71  74 CALM      30.11R
$$

SKY/WX REPORTED AS FAIR MEANS FEW OR NO CLOUDS BELOW
12 THOUSAND FEET.





USA.gov is the U.S. government's official web portal to all federal, state and local government web resources and services.